loading
DOY 203 | 2024-07-21T11:35:11Z
Showing default

TIANHUI 5D, 60212

Orbit data source: Space-Track

TIANHUI 5D, 60212 is a payload satellite owned by G. Cehui dili (CN) in SSO that was launched on Thu, 04 Jul 2024 UTC via a Chang Zheng 6A launch vehicle from the Taiyaun Space Center, China (TSC). Payloads include a variety of satellites, spacecraft, and rockets equipped with specific instruments for various scientific and technological missions. These include communications satellites like Starlink; space stations such as the ISS; scientific satellites like the Hubble; Earth observation satellites from companies like Planet Labs, Umbra, and HawkEye 360; GPS; miniature CubeSats for education and research; and military/defense satellites.

Loading next visibility...
Loading greatness...
TIANHUI 5D details
NORAD ID60212
COSPAR ID
2024-126B
Orbit
SSO
Last TLE update7 hours ago
Origin
Flag of CNG. Cehui dili (CN / PRC)
ManufacturerDFH
BusCAST-2000?
MotorUnknown
Mass~1,000 kg wet, ~1,000 kg dry
Launch date (UTC)
2024-07-04 (2 weeks ago)
Launch vehicle
Chang Zheng 6A
Launch site
Taiyaun Space Center, China (TSC)
Object type
Payload
Rocket body
Debris
Radar Cross SectionLarge (>1 m²)
Predictive object data (real-time)
Latitude16.15104°
Longitude-167.84303°
Altitude607.73 km
Speed7.557 km/s
Apparent Right ascension13h 17m 44s
Apparent Declination-10° 34' 40"
Sunlit
Object is in daylight
Predictive observer data (real-time)
Local Sidereal Time00:33:37
Azimuth338.535° N
Elevation-59.072°
Doppler factor1
Orbital elements
Apogee603.439 km
Perigee601.505 km
Semi-major axis6,980.609 km
Eccentricity0.0001385
Inclination97.8286°
RAAN209.4651°
Arg. of periapsis102.5727°
True anomaly257.5489°
Mean anomaly257.5644°
Mean motion3.72137 °/min
BSTAR0.00014784
Period96.74 mins
Definitive object data (Epoch: 2024-07-21T05:03:23.018Z)
Latitude-0.00003°
Longitude-165.84186°
Altitude608.687 km
Speed7.555 km/s
True Right ascension13h 57m 51s
True Declination0° 00' 00"
Sunlit
Object was in daylight at TLE epoch
TLE from 7 hours ago
0 TIANHUI 5D
1 60212U 24126B   24203.21068308  .00001289  00000-0  14784-3 0  9992
2 60212  97.8286 209.4651 0001385 102.5727 257.5644 14.87597544  2426
Epoch: 2024-07-21T05:03Z
No data available
Other satellites on launch #126 in the year 2024 (2024-07-04 UTC)

TIANHUI 5D Visibility forecast

Observer location: 39.9160978°, -105.1181434

TIANHUI 5D is not visible in the next 10 days
Span
Click to sort rows by Start time (UTC) header in descending order
Start Az.
Max El. time (UTC)
Max El. Az.
Max El.
End time (UTC)
End Az.